Location: Bremen
(53.0793°N, 8.8017°E)
Time: 09:45:02
(UTC+02:00)

X-37B - Visible Passes

Search period start: 18 October 2021 00:00
Search period end: 28 October 2021 00:00
Orbit: 385 x 389 km, 45.0° (Epoch: 13 October)

Date Brightness Start Highest point End Pass type
(mag) Time Alt. Az. Time Alt. Az. Time Alt. Az.
18 Oct 2.9 19:12:27 10° SSW 19:14:16 14° SSE 19:16:05 10° SE visible
18 Oct 3.1 20:47:51 10° SW 20:48:53 15° SW 20:48:53 15° SW visible
19 Oct 2.5 19:49:43 10° SW 19:52:03 19° S 19:53:04 17° SSE visible
20 Oct 2.8 18:51:44 10° SSW 18:53:54 17° S 18:56:06 10° SE visible
20 Oct 2.8 20:27:37 10° SW 20:29:33 18° SSW 20:29:33 18° SSW visible
21 Oct 2.7 19:29:21 10° SW 19:31:44 19° S 19:33:45 12° SE visible
22 Oct 2.9 20:07:31 10° SW 20:09:32 16° SSW 20:10:16 15° S visible
23 Oct 2.9 19:09:07 10° SW 19:11:24 18° S 19:13:40 10° SE visible
24 Oct 3.3 19:47:42 10° SW 19:49:09 13° SSW 19:50:36 10° S visible
25 Oct 3.3 18:49:02 10° SW 18:51:03 16° SSW 18:53:03 10° SSE visible
